DW5254 Weather Reports


time (UTC)temp
F
wind
direction
speed
knots
gust
knots
rain 1hr
in
rain 24hr
in
rain mn
in
humidity
%
barometer
mb
20260906113003 71 26 0.9 5.2 0.00 0.04 0.00 94 1014.0
20260906111503 70 32 0.9 4.3 0.00 0.04 0.00 94 1013.6
20260906104600 71 59 0.0 3.5 0.00 0.04 0.00 93 1013.7
20260906103059 71 20 1.7 5.2 0.00 0.04 0.00 93 1013.7
20260906101603 71 36 1.7 6.1 0.00 0.04 0.00 93 1013.5
20260906100056 71 37 2.6 7.8 0.00 0.04 0.00 92 1013.6
20260906094556 71 45 3.5 7.8 0.00 0.04 0.00 93 1013.6
20260906093055 71 39 2.6 5.2 0.00 0.04 0.00 93 1013.6
20260906091555 71 19 1.7 7.0 0.00 0.04 0.00 94 1013.6
20260906090054 71 32 1.7 6.1 0.00 0.04 0.00 95 1013.3
20260906084553 71 52 1.7 7.0 0.00 0.04 0.00 95 1013.3
20260906083054 71 37 2.6 5.2 0.00 0.04 0.00 95 1013.3
20260906081555 70 29 2.6 6.1 0.00 0.04 0.00 94 1013.2
20260906080051 70 35 3.5 7.0 0.00 0.04 0.00 94 1013.2
20260906074552 70 51 2.6 7.0 0.00 0.04 0.00 93 1013.2
20260906073048 70 27 1.7 4.3 0.00 0.04 0.00 93 1013.2
20260906071647 70 28 0.9 6.1 0.00 0.04 0.00 92 1013.2
20260906070045 70 32 3.5 6.1 0.00 0.04 0.00 92 1013.1
20260906064544 71 43 1.7 6.1 0.00 0.04 0.00 92 1013.2
20260906063042 71 41 1.7 6.1 0.00 0.04 0.00 91 1013.3
20260906061540 72 44 1.7 7.0 0.00 0.04 0.00 91 1013.5
20260906060053 72 30 0.9 5.2 0.00 0.04 0.00 91 1013.3
20260906054535 73 37 1.7 3.5 0.00 0.04 0.00 91 1013.3
20260906053036 73 26 0.9 3.5 0.00 0.04 0.00 90 1013.4
20260906051531 74 40 0.9 5.2 0.00 0.04 0.00 90 1013.3
20260906050027 75 38 0.0 4.3 0.00 0.04 0.00 88 1013.2
20260906044528 75 28 1.7 4.3 0.00 0.04 0.00 87 1013.1
20260906043027 76 25 0.0 2.6 0.00 0.04 0.00 87 1013.0
20260906041530 77 22 0.0 1.7 0.00 0.04 0.00 86 1013.0
20260906040033 77 51 0.0 3.5 0.00 0.04 0.00 84 1012.6
20260906034529 78 59 1.7 6.1 0.00 0.04 0.00 83 1012.6
20260906033023 79 39 2.6 7.0 0.00 0.04 0.00 82 1012.5
20260906031537 80 54 2.6 9.6 0.00 0.04 0.00 82 1012.3
20260906030022 80 61 3.5 8.7 0.00 0.04 0.00 82 1012.3
20260906024521 81 26 3.5 10.4 0.00 0.04 0.00 83 1012.2
20260906023021 82 37 6.1 11.3 0.00 0.04 0.00 82 1012.0
20260906021522 82 37 1.7 5.2 0.00 0.04 0.00 83 1011.4
20260906020020 82 44 0.0 0.9 0.00 0.04 0.00 83 1011.2
20260906014525 82 44 0.0 1.7 0.00 0.04 0.00 82 1011.0
20260906013019 83 16 0.0 0.0 0.00 0.04 0.00 81 1011.1
20260906011519 83 16 0.0 1.7 0.00 0.04 0.00 80 1010.9
20260906010018 84 16 0.0 1.7 0.00 0.04 0.00 79 1010.6
20260906004518 85 20 0.9 2.6 0.00 0.04 0.00 77 1010.4
20260906003017 85 1 0.0 1.7 0.00 0.04 0.00 76 1010.4
20260906001517 87 1 0.0 2.6 0.00 0.04 0.00 73 1010.5
20260906000016 88 354 0.0 3.5 0.00 0.04 0.00 72 1010.6
20260905234515 89 6 0.0 2.6 0.00 0.04 0.00 70 1010.6
20260905233018 90 350 0.9 4.3 0.00 0.04 0.00 68 1010.4
20260905231514 92 343 0.9 3.5 0.00 0.04 0.00 67 1010.4
20260905230014 92 18 1.7 5.2 0.00 0.04 0.00 65 1010.2
20260905224514 93 345 2.6 7.0 0.00 0.04 0.00 64 1010.1
20260905223012 94 18 2.6 5.2 0.00 0.04 0.00 63 1010.1
20260905221512 95 346 1.7 4.3 0.00 0.04 0.00 60 1010.0
20260905220014 95 339 1.7 5.2 0.00 0.04 0.00 58 1010.1
20260905214509 97 9 0.9 3.5 0.00 0.04 0.00 56 1010.2
20260905203058 90 263 0.0 2.6 0.00 0.04 0.04 67 1010.8
20260905201653 88 175 0.9 3.5 0.00 0.04 0.04 68 1010.9
20260905200113 87 118 1.7 6.1 0.00 0.04 0.04 68 1011.1
20260905194551 86 73 0.9 6.1 0.02 0.04 0.04 71 1011.1
20260905193049 85 126 2.6 9.6 0.04 0.04 0.04 72 1011.4
20260905191549 80 99 0.0 4.3 0.04 0.04 0.04 87 1011.6
20260905190053 79 37 1.7 4.3 0.04 0.04 0.04 84 1011.8
20260905184551 84 338 7.0 15.6 0.02 0.02 0.02 71 1012.0
20260905183047 95 342 0.9 4.3 0.00 0.00 0.00 56 1011.4
20260905181545 97 350 4.3 7.8 0.00 0.00 0.00 55 1011.4
20260905180105 97 312 0.0 5.2 0.00 0.00 0.00 54 1011.5
20260905174541 97 340 2.6 7.0 0.00 0.00 0.00 54 1011.7
20260905173059 97 334 4.3 8.7 0.00 0.00 0.00 55 1011.9
20260905171550 96 343 0.0 6.1 0.00 0.00 0.00 56 1012.0
20260905170038 96 324 1.7 4.3 0.00 0.00 0.00 56 1012.1
20260905164536 96 323 0.9 7.0 0.00 0.00 0.00 56 1012.4
20260905163033 95 274 1.7 6.1 0.00 0.00 0.00 58 1012.4
20260905161530 94 324 1.7 5.2 0.00 0.00 0.00 58 1012.4
20260905160047 94 298 2.6 7.8 0.00 0.00 0.00 60 1012.4
20260905154527 93 325 3.5 8.7 0.00 0.00 0.00 61 1012.4
20260905153027 93 323 3.5 8.7 0.00 0.00 0.00 62 1012.4
20260905151522 92 316 1.7 6.1 0.00 0.00 0.00 64 1012.5
20260905150018 91 314 4.3 7.8 0.00 0.00 0.00 64 1012.6
20260905144524 91 333 1.7 5.2 0.00 0.00 0.00 66 1012.6
20260905143013 89 314 0.9 3.5 0.00 0.00 0.00 68 1012.4
20260905141512 88 319 0.9 3.5 0.00 0.00 0.00 68 1012.5
20260905140014 86 333 0.9 2.6 0.00 0.00 0.00 71 1012.6
20260905134503 85 309 2.6 3.5 0.00 0.00 0.00 72 1012.8
20260905133007 85 320 0.9 2.6 0.00 0.00 0.00 70 1012.8
20260905131559 84 68 0.0 0.0 0.00 0.00 0.00 76 1012.9
20260905130055 80 68 0.0 0.0 0.00 0.00 0.00 82 1012.9
20260905124555 76 68 0.0 0.0 0.00 0.00 0.00 87 1012.8
20260905123051 76 67 0.0 0.0 0.00 0.00 0.00 87 1012.8
20260905121551 76 68 0.0 0.0 0.00 0.00 0.00 87 1012.7
20260905120058 75 67 0.0 0.0 0.00 0.00 0.00 88 1012.6
20260905114559 74 68 0.0 0.0 0.00 0.00 0.00 89 1012.5